COSMOS 1275 DEB, 42140

Orbit data source: Space-Track

COSMOS 1275 DEB, 42140 is space debris in LEO originally from a launch on Thu, 04 Jun 1981 UTC launched from the Plesetsk Missile And Space Complex (PKMTR). Debris objects in space refer to the collection of defunct objects orbiting the Earth. Examples of debris include non-operational satellites, rocket bodies, and fragments generated from explosions, collisions, or faulty payload assembly.

Loading next visibility...
Identifier
42140, 1981-053RC
Orbit
LEO
Country
Flag of CISCIS
Related business
Manufacturer
Unknown
Mission
Spacecraft
Bus & Motor
Unknown
Mass
Unknown
Launch date (UTC)
1981-06-04 (45 years ago)
Launch vehicle
Unknown
Launch site
Plesetsk Missile And Space Complex (PKMTR)
Object type
Payload
Rocket body
Debris
Shape & HBR
Unknown shape, 0.1 m
Radar Cross Section
Small (<0.1 m²)

Expand to show TLE details & history
Last TLE update: 2 weeks ago

TLE from 2 weeks ago
0 COSMOS 1275 DEB
1 42140U 81053RC  26219.91072729  .00000628  00000-0  84730-3 0  9996
2 42140  83.1346  87.7900 0200877  55.3790 306.6114 13.50207145592502
Epoch: 2026-08-07T21:51Z
TLE epoch observation values (Epoch: 2026-08-07T21:51:26.837Z)
Latitude
-0.00002°
Longitude
163.49854°
Altitude
987.075 km
Speed
7.401 km/s
True Right ascension
05h 51m 09s
True Declination
0° 00' 00"
Sunlit
Object was in daylight at epoch
Visualization orbit readout
Latitude
Unknown
Longitude
Unknown
Altitude
Unknown
Speed
Unknown
Apparent Right ascension
Unknown
Apparent Declination
Unknown
Sunlit
N/A
Visualization observer readout
Local Sidereal Time
13:52:55
Azimuth
Unknown
Elevation
Unknown
Doppler factor
Unknown
Orbital elements
Apogee altitude
1,218.26 km
Perigee altitude
919.082 km
Semi-major axis
7,446.808 km
Eccentricity
0.02009
Inclination
83.1346°
RAAN
87.79°
Arg. of periapsis
55.379°
True anomaly
304.73595°
Mean anomaly
306.6114°
Eccentric anomaly
305.67646°
Mean motion
3.37744 °/min
Orbital period
106.59 mins
BSTAR
0.0008473
Loading maneuver chart data...
Computing Atmospheric mass density...
Loading historical data...
Loading historical data...
Loading historical data...
Loading historical data...
Loading historical data...
Loading historical data...
Loading historical data...

Documentation

Showing up to 5 results
|